THORAD AGENA D DEB, 4653

Orbit data source: Space-Track

THORAD AGENA D DEB, 4653 is space debris in SSO originally from a launch on Wed, 08 Apr 1970 UTC launched from the Air Force Western Test Range (AFWTR). Debris objects in space refer to the collection of defunct objects orbiting the Earth. Examples of debris include non-operational satellites, rocket bodies, and fragments generated from explosions, collisions, or faulty payload assembly.

Loading next visibility...
Identifier
4653, 1970-025AM
Orbit
SSO
Country
Flag of USUS
Related business
Manufacturer
Unknown
Mission
Spacecraft
Bus & Motor
Unknown
Mass
Unknown
Launch date (UTC)
1970-04-08 (55 years ago)
Launch vehicle
Unknown
Launch site
Air Force Western Test Range (AFWTR)
Object type
Payload
Rocket body
Debris
Shape & HBR
Unknown
Radar Cross Section
Small (<0.1 m²)

Expand to show TLE details & history
Last TLE update: 1 day ago

TLE from 1 day ago
0 THORAD AGENA D DEB
1 04653U 70025AM  25259.91118229  .00009588  00000-0  20651-2 0  9994
2 04653  99.9936 152.9573 0017129  18.5241 341.6572 14.58632962827234
Epoch: 2025-09-16T21:52Z
TLE epoch observation values (Epoch: 2025-09-16T21:52:06.149Z)
Latitude
-0.00009°
Longitude
-171.163°
Altitude
689.009 km
Speed
7.518 km/s
True Right ascension
10h 11m 49s
True Declination
0° 00' 00"
Sunlit
Object was in daylight at epoch
Visualization orbit readout
Latitude
Unknown
Longitude
Unknown
Altitude
Unknown
Speed
Unknown
Apparent Right ascension
Unknown
Apparent Declination
Unknown
Sunlit
N/A
Visualization observer readout
Local Sidereal Time
15:05:51
Azimuth
Unknown
Elevation
Unknown
Doppler factor
Unknown
Orbital elements
Apogee altitude
706.881 km
Perigee altitude
682.65 km
Semi-major axis
7,072.903 km
Eccentricity
0.00171
Inclination
99.9936°
RAAN
152.9573°
Arg. of periapsis
18.5241°
True anomaly
341.5953°
Mean anomaly
341.6572°
Eccentric anomaly
341.62626°
Mean motion
3.64877 °/min
Orbital period
98.66 mins
BSTAR
0.0020651
Loading maneuver chart data...
Computing Atmospheric mass density...

Documentation

Showing up to 5 results
|